User: anonymous   Login
Location: Appeville
(49.3218°N, 1.3427°W)
Time: 08:24:04
(UTC+00:00)
Language:

PAYLOAD B - Orbit

View from above orbital plane
View from above orbital plane
View from above satellite
View from above satellite

Ground track
Ground track

The orbit data is extracted from the following two-line orbital elements,

1 27431U 02024B   20049.98108748  .00000071  00000-0  66604-4 0  9999
2 27431  99.1367  46.2895 0014635 232.4472 127.5368 14.09692856914018
Epoch (UTC): 18 February 2020 23:32:45
Eccentricity: 0.0014635
inclination: 99.1367°
perigee height: 850 km
apogee height: 871 km
right ascension of ascending node: 46.2895°
argument of perigee: 232.4472°
revolutions per day: 14.09692856
mean anomaly at epoch: 127.5368°
orbit number at epoch: 91401

The dashed part of the orbit path shows where the satellite is in the earth's shadow,  

DLR